Regional Weather Roundup
Issued by NWS

Home | Current Version | Previous Version | Graphics & Text | Print | Product List | Glossary On
Versions: 1 2 3 4 5 6 7 8 9 10 11 12 13 14 15 16 17 18 19 20 21 22 23 24 25 26 27 28 29 30 31 32 33 34 35 36 37 38 39 40 41 42 43 44 45 46 47 48 49 50
000
ASUS43 KFSD 281410
RWRSD

WEATHER ROUNDUP FOR SOUTH DAKOTA
NATIONAL WEATHER SERVICE SIOUX FALLS SD
900 AM CDT MON JUL 28 2014

NOTE: "FAIR" INDICATES FEW OR NO CLOUDS BELOW 12,000 FEET WITH NO
SIGNIFICANT WEATHER AND/OR OBSTRUCTIONS TO VISIBILITY.


SDZ001>005-009-010-012>017-281500-
NORTHWEST AND NORTH CENTRAL SOUTH DAKOTA

CITY           SKY/WX    TMP DP  RH WIND       PRES   REMARKS
BUFFALO          N/A     60  53  77 SE8       30.29S
FAITH            N/A     63  53  70 SE5       30.34F
MOBRIDGE       SUNNY     59  56  89 NW5       30.33R
$$

SDZ012>016-024>037-041>051-057-063-072>074-281500-
SOUTHWEST AND SOUTH CENTRAL SOUTH DAKOTA

CITY           SKY/WX    TMP DP  RH WIND       PRES   REMARKS
RAPID CTY ARPT MOSUNNY   62  54  74 SE7       30.35S
PIERRE         SUNNY     60  56  86 NW3       30.33R
CUSTER         SUNNY     60  50  69 CALM      30.44R
ELLSWORTH AFB  SUNNY     64  54  71 S8        30.34S
PHILIP         SUNNY     61  53  75 SE3       30.34S
PINE RIDGE     MOSUNNY   62  54  74 CALM      30.35S
WINNER         FAIR      65  54  67 N5        30.34S
$$

SDZ004>011-016>023-039-040-281500-
NORTHEAST SOUTH DAKOTA

CITY           SKY/WX    TMP DP  RH WIND       PRES   REMARKS
ABERDEEN       PTSUNNY   60  55  83 N8        30.32R
WATERTOWN      CLOUDY    62  56  80 N8        30.30R
SISSETON         N/A     65  58  78 N10       30.28R
$$

SDZ017-020-022-023-036>040-048>070-281500-
SOUTHEAST SOUTH DAKOTA

CITY           SKY/WX    TMP DP  RH WIND       PRES   REMARKS
SIOUX FALLS    PTSUNNY   65  58  78 N12       30.28R
HURON          SUNNY     60  56  86 N8        30.31S
CHAMBERLAIN    MOSUNNY   60  55  84 CALM      30.34R
MITCHELL       SUNNY     61  56  83 NW9       30.32S
YANKTON        SUNNY     63  55  77 NW10      30.30R
$$

ABBREVIATIONS USED IN REMARKS
   TC - TEMPERATURE IN CELSIUS
  WCI - WIND CHILL INDEX
   HX - HEAT INDEX
  VSB - VISIBILITY




USA.gov is the U.S. government's official web portal to all federal, state and local government web resources and services.